Location: Cortos
(40.7190°N, 4.5893°W)
Time: 09:51:58
(UTC+00:00)

Cosmos 2369 Rocket - Pass Details

Date: 05 July 2020
Orbit: 830 x 851 km, 71.0° (Epoch: 07 August)

Event Time Altitude Azimuth Distance (km) Brightness Sun altitude
Rises 23:38:24 0° 347° (NNW) 3,381 6.7 -25.8°
Reaches altitude 10° 23:41:27 10° 4° (N) 2,445 5.6 -25.9°
Maximum altitude 23:45:38 21° 52° (NE) 1,785 4.1 -26.0°
Enters shadow 23:48:34 15° 90° (E) 2,134 4.2 -26.1°
